Weather History for Roswell, NM

Change the Weather History Date:

Saturday, December 15, 2012

  Actual Average Record
Temperature  
Mean Temperature 43 °F 40 °F  
Max Temperature 60 °F 54 °F 78 °F (2010)
Min Temperature 26 °F 26 °F 0 °F (1987)
Degree Days  
Heating Degree Days 22 25  
Month to date heating degree days 270 354  
Since 1 July heating degree days 731 1000  
Cooling Degree Days 0 0  
Month to date cooling degree days 0 0  
Year to date cooling degree days 2356 1789  
Moisture  
Dew Point 22 °F    
Average Humidity 46    
Maximum Humidity 69    
Minimum Humidity 23    
Precipitation  
Precipitation 0.00 in 0.02 in 0.33 in (1959)
Month to date precipitation 0.03 0.32  
Year to date precipitation 6.13 12.59  
Sea Level Pressure  
Sea Level Pressure 29.84 in    
Wind  
Wind Speed 7 mph (WSW)    
Max Wind Speed 25 mph    
Max Gust Speed 31 mph    
Visibility 10 miles    
Events      
T = Trace of Precipitation, MM = Missing Value Source: NWS Daily Summary

Daily Weather History Graph

Daily Weather History Graph

Search for Another Location

Airport:

Trip Planner

Search our weather history database for the weather conditions in past years. The results will help you decide how hot, cold, wet, or windy it might be!

Date:

Astronomy

Dec. 15, 2012 Rise Set
Actual Time 6:54 AM MST 4:52 PM MST
Civil Twilight 6:27 AM MST 5:19 PM MST
Nautical Twilight 5:56 AM MST 5:50 PM MST
Astronomical Twilight 5:25 AM MST 6:21 PM MST
Moon 8:54 AM MST (12/15) 7:52 PM MST (12/15)
Length of Visible Light 10h 52m
Length of Day
9h 57m
Waxing Crescent, 9% of the Moon is Illuminated
Dec 15
Waxing Crescent
Dec 19
First Quarter
Dec 28
Full
Jan 4
Last Quarter
Jan 11
New

Hourly Weather History & Observations

Time (MST) Temp. Windchill Dew Point Humidity Pressure Visibility Wind Dir Wind Speed Gust Speed Precip Events Conditions
12:51 AM 46.0 °F 40.2 °F 21.9 °F 39% 29.80 in 10.0 mi West 12.7 mph 25.3 mph N/A   Clear
1:51 AM 42.1 °F - 21.0 °F 43% 29.83 in 10.0 mi Calm Calm - N/A   Clear
2:51 AM 36.0 °F 30.3 °F 19.9 °F 52% 29.85 in 10.0 mi South 6.9 mph - N/A   Clear
3:51 AM 32.0 °F - 19.9 °F 61% 29.85 in 10.0 mi Calm Calm - N/A   Clear
5:51 AM 28.9 °F - 19.0 °F 67% 29.87 in 10.0 mi Calm Calm - N/A   Clear
6:51 AM 28.9 °F - 19.0 °F 67% 29.91 in 10.0 mi Calm Calm - N/A   Clear
7:51 AM 28.9 °F - 19.0 °F 67% 29.90 in 10.0 mi Calm Calm - N/A   Clear
9:51 AM 46.0 °F 43.9 °F 25.0 °F 44% 29.89 in 10.0 mi NNE 4.6 mph - N/A   Clear
10:51 AM 51.1 °F - 24.1 °F 35% 29.87 in 10.0 mi ESE 6.9 mph - N/A   Clear
11:51 AM 57.9 °F - 23.0 °F 26% 29.81 in 10.0 mi West 18.4 mph 25.3 mph N/A   Clear
12:51 PM 59.0 °F - 23.0 °F 25% 29.76 in 10.0 mi WSW 19.6 mph - N/A   Clear
1:51 PM 60.1 °F - 23.0 °F 24% 29.75 in 10.0 mi WSW 17.3 mph 23.0 mph N/A   Clear
2:51 PM 57.9 °F - 21.9 °F 25% 29.78 in 10.0 mi West 13.8 mph - N/A   Clear
3:51 PM 57.0 °F - 24.1 °F 28% 29.80 in 10.0 mi West 9.2 mph - N/A   Clear
4:51 PM 53.1 °F - 23.0 °F 31% 29.82 in 10.0 mi West 5.8 mph - N/A   Clear
5:51 PM 48.9 °F - 21.9 °F 35% 29.84 in 10.0 mi West 5.8 mph - N/A   Clear
6:51 PM 48.9 °F - 24.1 °F 38% 29.85 in 10.0 mi WSW 9.2 mph - N/A   Clear
7:51 PM 44.1 °F 42.5 °F 23.0 °F 43% 29.86 in 10.0 mi West 3.5 mph - N/A   Clear
8:51 PM 37.0 °F 29.8 °F 23.0 °F 57% 29.85 in 10.0 mi SW 10.4 mph - N/A   Clear
9:51 PM 37.0 °F 31.0 °F 24.1 °F 59% 29.85 in 10.0 mi SSW 8.1 mph - N/A   Clear
11:51 PM 37.9 °F 30.9 °F 26.1 °F 62% 29.79 in 10.0 mi SW 10.4 mph - N/A   Clear